To NAV CANADA Home Page Login to a new session Search on AWWS site Feedback and Comments Disclaimer Vers la page française équivalente Tips FAQ What's new on the site To the Forecasts and Observations / NOTAM section To "File a Flight Plan" website Publications and other links Update of the User's profile FIC Telephone Numbers My Weather Data Folder Route Weather Data Regional Weather Data Local Weather Data To the Forecasts and Observations / NOTAM section
Request Generated 09/27/2016 at 15:28:54 UTC . Weather information available at that time is displayed.

METAR/TAF

CHESTERFIELD INLET/NU    

METAR CYCS 271500Z 36012KT 15SM SCT006 SCT100 04/01 A3006 RMK SC3AC1
SLP181=
METAR CYCS 271400Z 35013KT 15SM FEW005 FEW100 03/01 A3004 RMK ST1AC1
ST TR SLP176=
METAR CYCS 271300Z 35012G17KT 15SM FEW005 FEW100 FEW220 03/01 A3003
RMK SF1AC1CI1 SF TR SLP170=

CYCS - No TAF is issued for this station

Your time UTC time
Weather data provided by Environment Canada and NAV CANADA